STARLINK-35258

Last updated on Mon Oct 20 2025 00:02:07 GMT+0000 (Coordinated Universal Time)

1 65861U 25223H 25292.25002315 -.01907402 00000+0 -21797-1 0 9999 2 65861 53.1599 234.9944 0001160 84.5329 16.5592 15.64691547 3733
UTC large
Height (km)
Speed (km/s)
/
Latitude / Longitude
Inclination (degrees)
Orbital Period (minutes)
Azimuth
Elevation
Range (km)
Doppler Factor

Next 0 passes for location: London (51.5072 / 0.1276)

Sorry there are no passes over London.